R/V Atlantis Calliope CSV data file  (Time stamps are GMT)
Date, Time_GMT, Dec_Lat, Dec_Lon, Depth12, Depth35, GPS_COG, GPS_SOG, Gyro, Air_Temp, IMET_BPR, IMET_SWR, HRH, PhinsHd, SBE45C, SBE45S, SBE45T, Salinity, SSTMP, SSV, SSCND, SST_FSI, SST_SBE48, Wnd_Dir, Wnd_Spd, HdChkSum=1B
2009/03/11, 00:00:03, 7.363400, -88.863750, , , 240.0, 12.20, 243.1, 25.605, 1005.29, 8.3, 82.580, 243.2, , , , 32.6908, 27.3392, 1537.3954, 52.2519, 27.1922, 27.3392, 21.6, 4.2385, 1B
2009/03/11, 00:01:01, 7.361683, -88.866767, , , 240.0, 12.50, 243.9, 25.636, 1005.32, 7.9, 82.894, 243.9, , , , 32.6900, 27.3280, 1537.3737, 52.2415, 27.1766, 27.3280, 26.4, 3.9888, 1B
2009/03/11, 00:02:02, 7.360017, -88.869833, , , 243.0, 12.60, 243.2, 25.636, 1005.18, 6.6, 83.231, 243.2, , , , 32.7199, 27.3164, 1537.3745, 52.2706, 27.2083, 27.3164, 11.3, 4.1240, 1B
2009/03/11, 00:03:02, 7.358317, -88.872867, , , 241.0, 12.50, 242.4, 25.621, 1005.27, 5.9, 83.093, 242.2, , , , 32.6743, 27.3045, 1537.2992, 52.1938, 27.1371, 27.3045, 17.5, 4.3007, 1B
2009/03/11, 00:04:02, 7.356617, -88.875917, , , 243.0, 12.30, 243.6, 25.605, 1005.40, 5.5, 83.017, 243.7, , , , 32.7134, 27.2923, 1537.3129, 52.2373, 27.1704, 27.2923, 20.0, 4.1131, 1B
2009/03/11, 00:05:02, 7.354917, -88.878967, , , 242.0, 12.40, 243.2, 25.659, 1005.43, 5.0, 83.453, 243.4, , , , 32.7166, 27.2818, 1537.2925, 52.2314, 27.1588, 27.2818, 14.5, 4.5890, 1B
2009/03/11, 00:06:01, 7.353233, -88.881983, , , 239.0, 12.30, 242.4, 25.628, 1005.35, 4.3, 83.767, 243.0, , , , 32.6904, 27.2755, 1537.2504, 52.1879, 27.1214, 27.2755, 9.4, 4.3621, 1B
2009/03/11, 00:07:02, 7.351517, -88.884983, , , 240.0, 12.40, 243.1, 25.636, 1005.56, 3.7, 83.514, 242.9, , , , 32.7372, 27.2731, 1537.2945, 52.2521, 27.1777, 27.2731, 15.5, 4.5967, 1B
2009/03/11, 00:08:01, 7.349817, -88.887983, , , 242.0, 12.30, 242.8, 25.621, 1005.52, 3.2, 83.476, 242.4, , , , 32.7312, 27.2761, 1537.2922, 52.2453, 27.1656, 27.2761, 16.0, 4.4353, 1B
2009/03/11, 00:09:02, 7.348133, -88.891033, , , 241.0, 12.50, 243.2, 25.590, 1005.34, 2.8, 82.779, 243.1, , , , 32.7362, 27.2802, 1537.3096, 52.2577, 27.1820, 27.2802, 16.2, 4.0304, 1B
2009/03/11, 00:10:01, 7.346433, -88.894050, , , 243.0, 12.20, 243.2, 25.590, 1005.47, 2.5, 82.794, 243.1, , , , 32.7318, 27.2810, 1537.3067, 52.2522, 27.1862, 27.2810, 21.7, 3.7288, 1B
2009/03/11, 00:11:01, 7.344733, -88.897067, , , 240.0, 12.30, 243.5, 25.582, 1005.55, 2.2, 82.350, 243.0, , , , 32.6947, 27.2797, 1537.2650, 52.1984, 27.1349, 27.2797, 19.2, 3.9586, 1B
2009/03/11, 00:12:02, 7.343017, -88.900100, , , 239.0, 12.50, 243.2, 25.598, 1005.59, 1.8, 82.212, 242.4, , , , 32.7059, 27.2753, 1537.2664, 52.2097, 27.1450, 27.2753, 17.5, 4.2624, 1B
2009/03/11, 00:13:02, 7.341317, -88.903117, , , 243.0, 12.30, 243.5, 25.582, 1005.55, 1.6, 82.235, 243.6, , , , 32.7080, 27.2661, 1537.2477, 52.2036, 27.1406, 27.2661, 23.1, 3.9478, 1B
2009/03/11, 00:14:02, 7.339650, -88.906133, , , 239.0, 12.30, 243.6, 25.613, 1005.55, 1.4, 82.963, 243.5, , , , 32.7178, 27.2522, 1537.2265, 52.2036, 27.1440, 27.2522, 8.2, 4.5060, 1B
2009/03/11, 00:15:02, 7.337967, -88.909133, , , 241.0, 12.20, 242.8, 25.613, 1005.57, 1.2, 83.269, 242.5, , , , 32.7391, 27.2442, 1537.2309, 52.2260, 27.1672, 27.2442, 10.0, 4.4884, 1B
2009/03/11, 00:16:02, 7.336300, -88.912150, , , 241.0, 12.30, 243.9, 25.621, 1005.66, 0.9, 83.354, 243.1, , , , 32.7229, 27.2375, 1537.1985, 52.1962, 27.1473, 27.2375, 16.7, 4.6598, 1B
2009/03/11, 00:17:02, 7.334617, -88.915117, , , 238.0, 12.30, 242.5, 25.613, 1005.53, 0.6, 83.392, 242.9, , , , 32.7152, 27.2316, 1537.1769, 52.1794, 27.1330, 27.2316, 11.3, 4.6294, 1B
2009/03/11, 00:18:02, 7.332917, -88.918100, , , 240.0, 12.10, 243.0, 25.605, 1005.74, 0.5, 83.055, 242.7, , , , 32.7198, 27.2210, 1537.1577, 52.1754, 27.1282, 27.2210, 10.0, 4.4605, 1B
2009/03/11, 00:19:02, 7.331217, -88.921083, , , 240.0, 12.10, 243.4, 25.598, 1005.68, 0.5, 83.170, 242.8, , , , 32.6961, 27.2081, 1537.1032, 52.1289, 27.0833, 27.2081, 13.5, 4.3558, 1B
2009/03/11, 00:20:02, 7.329550, -88.924033, , , 240.0, 12.20, 243.4, 25.598, 1005.82, 0.3, 82.955, 243.7, , , , 32.7101, 27.1995, 1537.0985, 52.1402, 27.1035, 27.1995, 11.8, 4.7908, 1B
2009/03/11, 00:21:02, 7.327917, -88.927033, , , 242.0, 12.30, 242.9, 25.598, 1005.69, 0.1, 83.300, 243.3, , , , 32.7164, 27.1928, 1537.0899, 52.1425, 27.0970, 27.1928, 7.0, 4.7595, 1B
2009/03/11, 00:22:02, 7.326250, -88.930017, , , 240.0, 12.10, 242.6, 25.590, 1005.55, 0.1, 83.200, 242.7, , , , 32.7293, 27.1866, 1537.0894, 52.1547, 27.1092, 27.1866, 2.9, 4.7029, 1B
2009/03/11, 00:23:02, 7.324600, -88.933017, , , 241.0, 12.30, 243.1, 25.613, 1005.69, 0.1, 83.698, 242.9, , , , 32.7233, 27.1782, 1537.0640, 52.1378, 27.0952, 27.1782, 11.5, 4.6922, 1B
2009/03/11, 00:24:01, 7.322950, -88.936033, , , 237.0, 12.30, 243.3, 25.567, 1005.67, 0.1, 83.223, 243.4, , , , 32.7021, 27.1690, 1537.0205, 52.0985, 27.0685, 27.1690, 1.2, 5.1863, 1B
2009/03/11, 00:25:02, 7.321300, -88.939050, , , 239.0, 12.30, 243.1, 25.567, 1005.66, 0.1, 83.759, 243.2, , , , 32.7223, 27.1592, 1537.0196, 52.1174, 27.0849, 27.1592, 10.2, 4.9905, 1B
2009/03/11, 00:26:01, 7.319633, -88.942067, , , 240.0, 12.20, 242.2, 25.567, 1005.63, 0.0, 83.759, 241.8, , , , 32.7338, 27.1530, 1537.0218, 52.1294, 27.0965, 27.1530, 10.1, 4.4226, 1B
2009/03/11, 00:27:01, 7.317950, -88.945033, , , 243.0, 12.30, 242.2, 25.559, 1005.60, 0.1, 83.285, 242.4, , , , 32.7262, 27.1466, 1536.9980, 52.1117, 27.0849, 27.1466, 20.4, 3.6107, 1B
2009/03/11, 00:28:01, 7.316300, -88.948033, , , 242.0, 12.20, 242.9, 25.582, 1005.59, 0.1, 83.530, 242.7, , , , 32.7317, 27.1410, 1536.9881, 52.1126, 27.0776, 27.1410, 5.8, 4.4764, 1B
2009/03/11, 00:29:02, 7.314633, -88.951067, , , 243.0, 12.50, 243.3, 25.590, 1005.78, 0.1, 83.989, 243.6, , , , 32.7370, 27.1375, 1536.9857, 52.1167, 27.0843, 27.1375, 8.7, 4.4678, 1B
2009/03/11, 00:30:02, 7.313000, -88.954083, , , 242.0, 12.30, 243.2, 25.559, 1005.64, 0.1, 83.591, 243.3, , , , 32.7393, 27.1357, 1536.9840, 52.1181, 27.0858, 27.1357, 6.7, 4.5107, 1B
2009/03/11, 00:31:01, 7.311400, -88.957100, , , 239.0, 12.20, 242.4, 25.567, 1005.81, 0.1, 83.729, 242.9, , , , 32.7661, 27.1371, 1537.0156, 52.1575, 27.1159, 27.1371, 8.4, 4.4733, 1B
2009/03/11, 00:32:01, 7.309783, -88.960100, , , 244.0, 12.20, 242.1, 25.544, 1005.77, 0.1, 83.507, 242.3, , , , 32.7802, 27.1444, 1537.0436, 52.1832, 27.1386, 27.1444, 10.1, 4.4136, 1B
2009/03/11, 00:33:01, 7.308167, -88.963083, , , 242.0, 12.10, 242.6, 25.528, 1005.83, 0.1, 83.223, 243.0, , , , 32.7873, 27.1512, 1537.0703, 52.2017, 27.1548, 27.1512, 12.4, 4.4161, 1B
2009/03/11, 00:34:01, 7.306583, -88.966117, , , 241.0, 12.10, 241.9, 25.528, 1005.82, 0.1, 83.223, 242.2, , , , 32.8024, 27.1638, 1537.1100, 52.2334, 27.1828, 27.1638, 10.4, 4.4163, 1B
2009/03/11, 00:35:02, 7.304967, -88.969117, , , 240.0, 12.00, 242.9, 25.536, 1005.93, 0.1, 82.925, 242.6, , , , 32.8245, 27.1795, 1537.1741, 52.2827, 27.2290, 27.1795, 9.2, 4.4049, 1B
2009/03/11, 00:36:02, 7.303367, -88.972117, , , 242.0, 12.10, 243.4, 25.559, 1005.90, 0.1, 83.269, 242.7, , , , 32.8068, 27.1996, 1537.2011, 52.2776, 27.2472, 27.1996, 8.0, 4.6006, 1B
2009/03/11, 00:37:01, 7.301900, -88.974917, , , 242.0, 10.90, 243.5, 25.559, 1005.87, 0.1, 83.269, 243.4, , , , 32.7895, 27.2163, 1537.2165, 52.2678, 27.2597, 27.2163, 359.4, 4.9877, 1B
2009/03/11, 00:38:01, 7.300633, -88.977367, , , 240.0, 9.20, 242.5, 25.544, 1005.87, 0.1, 83.285, 243.1, , , , 32.7683, 27.2275, 1537.2211, 52.2496, 27.2378, 27.2275, 0.2, 4.9288, 1B
2009/03/11, 00:39:01, 7.299467, -88.979550, , , 245.0, 8.70, 242.4, 25.551, 1005.86, 0.1, 83.836, 242.7, , , , 32.6971, 27.2296, 1537.1530, 52.1433, 27.2005, 27.2296, 355.5, 4.6286, 1B
2009/03/11, 00:40:01, 7.298317, -88.981783, , , 246.0, 9.50, 243.1, 25.536, 1005.80, 0.1, 83.369, 242.4, , , , 32.6890, 27.2315, 1537.1489, 52.1421, 27.2005, 27.2315, 5.8, 5.0552, 1B
2009/03/11, 00:41:01, 7.297100, -88.984267, , , 249.0, 10.20, 242.4, 25.528, 1005.84, 0.1, 83.216, 242.7, , , , 32.6827, 27.2307, 1537.1397, 52.1321, 27.2084, 27.2307, 19.3, 5.1031, 1B
2009/03/11, 00:42:01, 7.295750, -88.986883, , , 246.0, 10.80, 242.7, 25.544, 1005.95, 0.1, 83.522, 242.4, , , , 32.6307, 27.2218, 1537.0670, 52.0497, 27.1600, 27.2218, 19.5, 5.0447, 1B
2009/03/11, 00:43:01, 7.294350, -88.989583, , , 242.0, 11.20, 243.7, 25.536, 1005.79, 0.1, 83.775, 243.4, , , , 32.6001, 27.2068, 1536.9986, 51.9913, 27.1227, 27.2068, 7.7, 4.6856, 1B
2009/03/11, 00:44:02, 7.292950, -88.992350, , , 246.0, 11.20, 243.1, 25.528, 1006.01, 0.1, 83.461, 243.3, , , , 32.6093, 27.1942, 1536.9796, 51.9919, 27.1279, 27.1942, 12.2, 4.0151, 1B
2009/03/11, 00:45:02, 7.291483, -88.995200, , , 244.0, 11.70, 241.6, 25.513, 1005.78, 0.1, 83.576, 242.0, , , , 32.5941, 27.1794, 1536.9298, 51.9556, 27.1060, 27.1794, 19.8, 3.9996, 1B
2009/03/11, 00:46:01, 7.289900, -88.998100, , , 242.0, 11.90, 242.7, 25.536, 1006.00, 0.1, 83.545, 242.8, , , , 32.5855, 27.1674, 1536.8933, 51.9315, 27.0887, 27.1674, 3.8, 4.0599, 1B
2009/03/11, 00:47:02, 7.288317, -89.001117, , , 243.0, 12.40, 243.4, 25.497, 1005.96, 0.1, 83.614, 243.2, , , , 32.5915, 27.1554, 1536.8723, 51.9281, 27.0897, 27.1554, 10.7, 4.0420, 1B
2009/03/11, 00:48:01, 7.286733, -89.004117, , , 242.0, 12.50, 242.5, 25.513, 1005.97, 0.1, 83.805, 242.5, , , , 32.6110, 27.1501, 1536.8816, 51.9508, 27.1032, 27.1501, 9.5, 3.9359, 1B
2009/03/11, 00:49:01, 7.285100, -89.007117, , , 244.0, 12.10, 243.2, 25.497, 1006.07, 0.1, 83.399, 243.2, , , , 32.5998, 27.1462, 1536.8602, 51.9307, 27.0978, 27.1462, 20.8, 4.0523, 1B
2009/03/11, 00:50:02, 7.283517, -89.010133, , , 240.0, 12.20, 243.4, 25.497, 1005.97, 0.1, 83.645, 244.3, , , , 32.6155, 27.1469, 1536.8784, 51.9537, 27.1166, 27.1469, 6.5, 4.6052, 1B
2009/03/11, 00:51:02, 7.282000, -89.013183, , , 246.0, 12.20, 243.6, 25.505, 1005.88, 0.1, 83.384, 243.5, , , , 32.6373, 27.1561, 1536.9225, 51.9938, 27.1509, 27.1561, 16.5, 3.8344, 1B
2009/03/11, 00:52:02, 7.280450, -89.016200, , , 243.0, 12.10, 242.8, 25.490, 1006.02, 0.1, 83.308, 242.4, , , , 32.6457, 27.1644, 1536.9503, 52.0139, 27.1776, 27.1644, 13.6, 4.0014, 1B
2009/03/11, 00:53:01, 7.278967, -89.018967, , , 243.0, 10.70, 243.4, 25.513, 1006.04, 0.1, 83.415, 243.2, , , , 32.6406, 27.1798, 1536.9743, 52.0220, 27.1810, 27.1798, 5.6, 3.6511, 1B
2009/03/11, 00:54:02, 7.277700, -89.021467, , , 241.0, 9.40, 242.5, 25.505, 1006.00, 0.1, 83.323, 242.6, , , , 32.6419, 27.1936, 1537.0128, 52.0376, 27.2057, 27.1936, 4.1, 4.4100, 1B
2009/03/11, 00:55:02, 7.276517, -89.023767, , , 240.0, 9.40, 242.3, 25.513, 1006.09, 0.1, 83.499, 242.4, , , , 32.6254, 27.2013, 1537.0128, 52.0217, 27.1894, 27.2013, 10.0, 4.7964, 1B
2009/03/11, 00:56:01, 7.275300, -89.026100, , , 242.0, 9.80, 243.2, 25.497, 1005.92, 0.1, 83.308, 243.0, , , , 32.6286, 27.2104, 1537.0351, 52.0346, 27.2035, 27.2104, 13.8, 4.6333, 1B
2009/03/11, 00:57:01, 7.274017, -89.028600, , , 243.0, 10.30, 242.3, 25.497, 1006.25, 0.1, 83.262, 242.3, , , , 32.6379, 27.2198, 1537.0639, 52.0560, 27.2236, 27.2198, 20.1, 5.0838, 1B
2009/03/11, 00:58:01, 7.272633, -89.031250, , , 240.0, 10.90, 242.9, 25.497, 1006.02, 0.1, 82.955, 242.8, , , , 32.6304, 27.2287, 1537.0805, 52.0560, 27.2250, 27.2287, 9.4, 4.7685, 1B
2009/03/11, 00:59:02, 7.271167, -89.034017, , , 244.0, 11.40, 243.3, 25.505, 1006.06, 0.0, 83.323, 243.8, , , , 32.6287, 27.2351, 1537.0933, 52.0600, 27.2281, 27.2351, 14.2, 4.3114, 1B
2009/03/11, 01:00:02, 7.269700, -89.036900, , , 243.0, 11.60, 243.3, 25.528, 1006.20, 0.1, 83.507, 242.9, , , , 32.6016, 27.2371, 1537.0691, 52.0235, 27.2012, 27.2371, 21.3, 4.4279, 1B
2009/03/11, 01:01:01, 7.268233, -89.039850, , , 241.0, 11.70, 242.7, 25.536, 1006.18, 0.1, 83.775, 242.3, , , , 32.6210, 27.2388, 1537.0929, 52.0527, 27.2142, 27.2388, 25.7, 4.3298, 1B
2009/03/11, 01:02:01, 7.266683, -89.042783, , , 242.0, 12.00, 242.9, 25.544, 1006.23, 0.2, 83.736, 242.8, , , , 32.6058, 27.2393, 1537.0786, 52.0317, 27.2116, 27.2393, 9.6, 4.6118, 1B
2009/03/11, 01:03:02, 7.265117, -89.045733, , , 240.0, 11.80, 243.2, 25.521, 1006.34, 0.5, 83.491, 243.0, , , , 32.6130, 27.2394, 1537.0864, 52.0419, 27.2190, 27.2394, 2.6, 4.5261, 1B
2009/03/11, 01:04:01, 7.263583, -89.048683, , , 243.0, 12.00, 243.2, 25.536, 1006.24, 0.5, 83.744, 243.4, , , , 32.6169, 27.2426, 1537.0972, 52.0507, 27.2310, 27.2426, 6.0, 4.3215, 1B
2009/03/11, 01:05:02, 7.262050, -89.051650, , , 242.0, 12.10, 243.1, 25.490, 1006.21, 0.5, 83.507, 242.3, , , , 32.6229, 27.2475, 1537.1153, 52.0641, 27.2430, 27.2475, 13.3, 4.7493, 1B
2009/03/11, 01:06:02, 7.260483, -89.054633, , , 243.0, 12.20, 242.6, 25.497, 1006.25, 0.5, 83.614, 243.2, , , , 32.6162, 27.2497, 1537.1132, 52.0567, 27.2297, 27.2497, 10.7, 4.5978, 1B
2009/03/11, 01:07:02, 7.258950, -89.057633, , , 244.0, 12.20, 243.1, 25.505, 1006.17, 0.5, 83.323, 243.2, , , , 32.6304, 27.2539, 1537.1378, 52.0811, 27.2510, 27.2539, 13.8, 4.5409, 1B
2009/03/11, 01:08:01, 7.257367, -89.060617, , , 248.0, 11.90, 243.5, 25.482, 1006.15, 0.5, 83.254, 242.5, , , , 32.6397, 27.2632, 1537.1638, 52.1014, 27.2739, 27.2632, 12.6, 4.7672, 1B
2009/03/11, 01:09:01, 7.255817, -89.063583, , , 241.0, 12.00, 242.9, 25.490, 1006.23, 0.3, 83.208, 242.8, , , , 32.6626, 27.2776, 1537.2257, 52.1505, 27.3139, 27.2776, 14.1, 4.3282, 1B
2009/03/11, 01:10:01, 7.254267, -89.066567, , , 241.0, 11.90, 243.2, 25.536, 1006.30, 0.2, 83.767, 242.0, , , , 32.6870, 27.2964, 1537.2943, 52.2039, 27.3609, 27.2964, 13.4, 4.4284, 1B
2009/03/11, 01:11:02, 7.252717, -89.069533, , , 242.0, 11.90, 243.4, 25.528, 1006.18, 0.5, 83.851, 243.4, , , , 32.6774, 27.3167, 1537.3302, 52.2104, 27.3746, 27.3167, 4.4, 4.5216, 1B
2009/03/11, 01:12:02, 7.251217, -89.072517, , , 241.0, 12.00, 243.6, 25.513, 1006.20, 0.4, 83.392, 242.8, , , , 32.6690, 27.3357, 1537.3644, 52.2174, 27.3821, 27.3357, 13.6, 4.4246, 1B
2009/03/11, 01:13:01, 7.249700, -89.075483, , , 244.0, 11.90, 242.8, 25.513, 1006.24, 0.4, 83.392, 242.3, , , , 32.6869, 27.3571, 1537.4205, 52.2592, 27.4214, 27.3571, 14.1, 3.4797, 1B
2009/03/11, 01:14:01, 7.248217, -89.078500, , , 242.0, 12.00, 242.7, 25.521, 1006.32, 0.5, 83.407, 243.2, , , , 32.6961, 27.3809, 1537.4893, 52.2974, 27.4701, 27.3809, 7.0, 3.9566, 1B
2009/03/11, 01:15:02, 7.246650, -89.081450, , , 240.0, 11.90, 243.6, 25.513, 1006.23, 0.5, 83.308, 243.3, , , , 32.6399, 27.4021, 1537.4840, 52.2420, 27.4558, 27.4021, 7.9, 4.3789, 1B
2009/03/11, 01:16:02, 7.245150, -89.084417, , , 241.0, 11.90, 243.2, 25.505, 1006.38, 0.5, 82.986, 243.4, , , , 32.5618, 27.4146, 1537.4297, 52.1429, 27.4403, 27.4146, 13.8, 4.1281, 1B
2009/03/11, 01:17:02, 7.243633, -89.087400, , , 245.0, 11.80, 243.8, 25.536, 1006.33, 0.4, 83.399, 242.9, , , , 32.5048, 27.4227, 1537.3877, 52.0696, 27.4299, 27.4227, 19.8, 3.8096, 1B
2009/03/11, 01:18:02, 7.242150, -89.090383, , , 243.0, 11.90, 242.3, 25.528, 1006.45, 0.5, 83.384, 243.5, , , , 32.5182, 27.4333, 1537.4259, 52.0993, 27.4668, 27.4333, 12.3, 3.7700, 1B
2009/03/11, 01:19:01, 7.240683, -89.093383, , , 242.0, 12.00, 242.7, 25.521, 1006.39, 0.4, 83.208, 242.9, , , , 32.3746, 27.4274, 1537.2607, 51.8884, 27.3502, 27.4274, 13.7, 3.8732, 1B
2009/03/11, 01:20:02, 7.239150, -89.096333, , , 242.0, 12.00, 243.1, 25.528, 1006.50, 0.3, 83.445, 242.2, , , , 32.3407, 27.4090, 1537.1832, 51.8219, 27.3095, 27.4090, 9.9, 3.8773, 1B
2009/03/11, 01:21:02, 7.237600, -89.099300, , , 244.0, 12.00, 242.6, 25.528, 1006.41, 0.3, 83.445, 243.0, , , , 32.3422, 27.3915, 1537.1451, 51.8068, 27.3058, 27.3915, 22.2, 3.8390, 1B
2009/03/11, 01:22:01, 7.236017, -89.102217, , , 244.0, 11.70, 242.8, 25.544, 1006.26, 0.3, 83.959, 242.5, , , , 32.3444, 27.3752, 1537.1146, 51.7956, 27.3074, 27.3752, 18.8, 4.0233, 1B
2009/03/11, 01:23:02, 7.234500, -89.105183, , , 249.0, 11.80, 244.9, 25.536, 1006.44, 0.5, 83.936, 244.8, , , , 32.3505, 27.3627, 1537.0886, 51.7902, 27.3141, 27.3627, 9.9, 3.4724, 1B
2009/03/11, 01:24:01, 7.233083, -89.108217, , , 244.0, 12.10, 242.0, 25.536, 1006.43, 0.5, 83.936, 242.3, , , , 32.3570, 27.3573, 1537.0866, 51.7956, 27.3334, 27.3573, 7.0, 3.6585, 1B
2009/03/11, 01:25:01, 7.231550, -89.111183, , , 241.0, 11.90, 242.9, 25.513, 1006.32, 0.5, 83.553, 242.0, , , , 32.3280, 27.3499, 1537.0405, 51.7475, 27.3054, 27.3499, 5.3, 3.7907, 1B
2009/03/11, 01:26:01, 7.230017, -89.114167, , , 238.0, 12.00, 243.2, 25.521, 1006.47, 0.5, 83.200, 243.0, , , , 32.3222, 27.3431, 1537.0171, 51.7317, 27.2952, 27.3431, 7.5, 3.8336, 1B
2009/03/11, 01:27:01, 7.228483, -89.117100, , , 243.0, 12.10, 242.7, 25.521, 1006.51, 0.5, 83.200, 241.9, , , , 32.3378, 27.3403, 1537.0234, 51.7496, 27.3098, 27.3403, 20.9, 3.7797, 1B
2009/03/11, 01:28:01, 7.226950, -89.120067, , , 240.0, 11.90, 243.1, 25.521, 1006.44, 0.5, 83.354, 243.2, , , , 32.3423, 27.3410, 1537.0307, 51.7571, 27.3196, 27.3410, 15.0, 3.8470, 1B
2009/03/11, 01:29:01, 7.225417, -89.123017, , , 241.0, 11.90, 242.8, 25.521, 1006.37, 0.5, 83.530, 243.5, , , , 32.3632, 27.3459, 1537.0635, 51.7915, 27.3462, 27.3459, 8.2, 4.0925, 1B
2009/03/11, 01:30:02, 7.223900, -89.125983, , , 248.0, 12.00, 244.2, 25.544, 1006.48, 0.4, 83.675, 243.9, , , , 32.3899, 27.3551, 1537.1130, 51.8388, 27.3695, 27.3551, 19.4, 3.4976, 1B
2009/03/11, 01:31:02, 7.222433, -89.128983, , , 245.0, 11.90, 242.6, 25.521, 1006.42, 0.2, 83.882, 243.1, , , , 32.3781, 27.3663, 1537.1260, 51.8331, 27.3866, 27.3663, 14.1, 3.4789, 1B
2009/03/11, 01:32:01, 7.220917, -89.131950, , , 240.0, 11.80, 242.6, 25.513, 1006.46, 0.3, 83.361, 242.7, , , , 32.3609, 27.3714, 1537.1189, 51.8134, 27.3684, 27.3714, 14.6, 3.3554, 1B
2009/03/11, 01:33:02, 7.219350, -89.134867, , , 240.0, 11.80, 242.7, 25.528, 1006.37, 0.5, 83.568, 242.3, , , , 32.3427, 27.3693, 1537.0953, 51.7856, 27.3320, 27.3693, 12.4, 3.8269, 1B
2009/03/11, 01:34:02, 7.217817, -89.137800, , , 240.0, 11.90, 244.2, 25.528, 1006.63, 0.5, 83.637, 243.6, , , , 32.3501, 27.3655, 1537.0945, 51.7924, 27.3280, 27.3655, 7.2, 4.0678, 1B
2009/03/11, 01:35:01, 7.216283, -89.140750, , , 241.0, 12.00, 242.3, 25.521, 1006.45, 0.5, 83.323, 242.5, , , , 32.3593, 27.3630, 1537.0993, 51.8033, 27.3362, 27.3630, 8.7, 3.8690, 1B
2009/03/11, 01:36:01, 7.214817, -89.143733, , , 242.0, 11.90, 242.7, 25.521, 1006.56, 0.3, 83.629, 244.1, , , , 32.3817, 27.3665, 1537.1277, 51.8373, 27.3647, 27.3665, 16.7, 3.4426, 1B
2009/03/11, 01:37:01, 7.213267, -89.146667, , , 240.0, 11.60, 242.5, 25.513, 1006.52, 0.5, 83.706, 243.2, , , , 32.4093, 27.3759, 1537.1757, 51.8849, 27.3861, 27.3759, 10.6, 3.4922, 1B
2009/03/11, 01:38:02, 7.211767, -89.149567, , , 242.0, 11.70, 242.6, 25.536, 1006.62, 0.5, 84.410, 242.8, , , , 32.4155, 27.3889, 1537.2167, 51.9088, 27.4248, 27.3889, 8.0, 3.8272, 1B
2009/03/11, 01:39:02, 7.210267, -89.152483, , , 248.0, 11.90, 243.4, 25.513, 1006.62, 0.5, 83.982, 243.4, , , , 32.4242, 27.4019, 1537.2554, 51.9340, 27.4390, 27.4019, 15.8, 3.3714, 1B
2009/03/11, 01:40:02, 7.208800, -89.155433, , , 247.0, 11.90, 243.2, 25.513, 1006.56, 0.5, 83.882, 242.9, , , , 32.4085, 27.4121, 1537.2619, 51.9217, 27.4269, 27.4121, 25.4, 3.7062, 1B
2009/03/11, 01:41:01, 7.207250, -89.158383, , , 238.0, 11.90, 242.6, 25.521, 1006.51, 0.5, 83.851, 242.7, , , , 32.4011, 27.4202, 1537.2724, 51.9192, 27.4240, 27.4202, 11.2, 4.6516, 1B
2009/03/11, 01:42:01, 7.205683, -89.161350, , , 242.0, 12.00, 243.0, 25.497, 1006.45, 0.5, 83.897, 243.2, , , , 32.4288, 27.4297, 1537.3232, 51.9681, 27.4650, 27.4297, 18.9, 4.0421, 1B
2009/03/11, 01:43:02, 7.204167, -89.164300, , , 243.0, 12.00, 242.7, 25.513, 1006.58, 0.5, 83.882, 243.5, , , , 32.4053, 27.4366, 1537.3139, 51.9413, 27.4378, 27.4366, 17.2, 3.5471, 1B
2009/03/11, 01:44:02, 7.202600, -89.167233, , , 242.0, 11.90, 243.2, 25.490, 1006.69, 0.5, 83.507, 243.2, , , , 32.3903, 27.4388, 1537.3031, 51.9221, 27.4162, 27.4388, 24.1, 3.5068, 1B
2009/03/11, 01:45:01, 7.201017, -89.170150, , , 244.0, 11.90, 242.9, 25.474, 1006.67, 0.5, 83.078, 243.1, , , , 32.3861, 27.4365, 1537.2955, 51.9147, 27.4083, 27.4365, 26.0, 3.4824, 1B
2009/03/11, 01:46:02, 7.199467, -89.173067, , , 240.0, 12.10, 242.7, 25.505, 1006.73, 0.5, 83.269, 242.9, , , , 32.3624, 27.4306, 1537.2550, 51.8741, 27.3742, 27.4306, 14.0, 4.1600, 1B
2009/03/11, 01:47:02, 7.197950, -89.175983, , , 245.0, 11.60, 243.7, 25.513, 1006.38, 0.5, 83.553, 244.0, , , , 32.3744, 27.4234, 1537.2514, 51.8842, 27.3842, 27.4234, 12.3, 3.9981, 1B
2009/03/11, 01:48:02, 7.196483, -89.178967, , , 243.0, 12.00, 242.4, 25.521, 1006.55, 0.5, 83.989, 241.9, , , , 32.4005, 27.4222, 1537.2763, 51.9203, 27.4128, 27.4222, 13.3, 4.0504, 1B
2009/03/11, 01:49:01, 7.194917, -89.181933, , , 241.0, 12.10, 241.8, 25.505, 1006.74, 0.5, 83.514, 243.4, , , , 32.4133, 27.4269, 1537.3005, 51.9432, 27.4334, 27.4269, 11.7, 4.0913, 1B
2009/03/11, 01:50:02, 7.193383, -89.184917, , , 242.0, 12.00, 242.5, 25.490, 1006.65, 0.5, 83.568, 242.4, , , , 32.3952, 27.4276, 1537.2829, 51.9180, 27.4112, 27.4276, 8.9, 4.3041, 1B
2009/03/11, 01:51:01, 7.191733, -89.187867, , , 242.0, 12.00, 243.9, 25.505, 1006.69, 0.2, 83.920, 243.3, , , , 32.4113, 27.4335, 1537.3101, 51.9455, 27.4384, 27.4335, 7.6, 4.3851, 1B
2009/03/11, 01:52:01, 7.190183, -89.190883, , , 240.0, 12.30, 242.3, 25.505, 1006.67, 0.4, 83.920, 242.6, , , , 32.4090, 27.4377, 1537.3167, 51.9462, 27.4331, 27.4377, 16.1, 4.5527, 1B
2009/03/11, 01:53:02, 7.188517, -89.193833, , , 242.0, 11.90, 242.5, 25.482, 1006.61, 0.5, 83.690, 242.3, , , , 32.4137, 27.4461, 1537.3443, 51.9628, 27.4413, 27.4461, 7.0, 4.3506, 1B
2009/03/11, 01:54:01, 7.186883, -89.196767, , , 240.0, 12.20, 242.5, 25.482, 1006.47, 0.5, 83.690, 242.9, , , , 32.3951, 27.4499, 1537.3335, 51.9400, 27.4196, 27.4499, 7.9, 4.8158, 1B
2009/03/11, 01:55:01, 7.185250, -89.199733, , , 241.0, 12.20, 243.5, 25.482, 1006.68, 0.5, 83.384, 243.0, , , , 32.3933, 27.4485, 1537.3270, 51.9355, 27.4059, 27.4485, 22.5, 4.9036, 1B
2009/03/11, 01:56:02, 7.183633, -89.202750, , , 242.0, 12.30, 242.8, 25.513, 1006.58, 0.5, 84.142, 242.7, , , , 32.4202, 27.4530, 1537.3668, 51.9789, 27.4357, 27.4530, 21.7, 4.7188, 1B
2009/03/11, 01:57:01, 7.182000, -89.205717, , , 239.0, 12.40, 242.8, 25.521, 1006.71, 0.5, 84.273, 243.4, , , , 32.4111, 27.4561, 1537.3642, 51.9689, 27.4127, 27.4561, 16.7, 4.8081, 1B
2009/03/11, 01:58:02, 7.180400, -89.208700, , , 241.0, 12.10, 242.3, 25.497, 1006.60, 0.5, 83.890, 242.6, , , , 32.4251, 27.4575, 1537.3821, 51.9903, 27.4345, 27.4575, 10.4, 4.9568, 1B
2009/03/11, 01:59:02, 7.178783, -89.211667, , , 240.0, 11.90, 242.8, 25.497, 1006.57, 0.5, 83.736, 242.3, , , , 32.4292, 27.4554, 1537.3817, 51.9941, 27.4155, 27.4554, 14.5, 4.7573, 1B
2009/03/11, 02:00:02, 7.177133, -89.214617, , , 240.0, 12.20, 242.6, 25.521, 1006.90, 0.4, 83.736, 243.0, , , , 32.4469, 27.4542, 1537.3977, 52.0182, 27.4338, 27.4542, 12.5, 4.6208, 1B
2009/03/11, 02:01:02, 7.175483, -89.217533, , , 243.0, 12.10, 243.8, 25.490, 1006.79, 0.4, 83.683, 243.4, , , , 32.4418, 27.4541, 1537.3921, 52.0108, 27.4119, 27.4541, 21.9, 4.9771, 1B
2009/03/11, 02:02:02, 7.173883, -89.220533, , , 244.0, 12.40, 243.9, 25.513, 1006.82, 0.3, 83.997, 243.6, , , , 32.4972, 27.4593, 1537.4624, 52.0951, 27.4831, 27.4593, 24.8, 5.0350, 1B
2009/03/11, 02:03:02, 7.172250, -89.223533, , , 238.0, 12.10, 242.2, 25.505, 1006.67, 0.5, 84.158, 242.4, , , , 32.4427, 27.4625, 1537.4121, 52.0204, 27.4151, 27.4625, 11.1, 5.0052, 1B
2009/03/11, 02:04:01, 7.170583, -89.226483, , , 240.0, 12.00, 243.4, 25.528, 1006.77, 0.5, 84.242, 243.5, , , , 32.4016, 27.4522, 1537.3507, 51.9538, 27.3616, 27.4522, 16.8, 4.2397, 1B
2009/03/11, 02:05:01, 7.168983, -89.229417, , , 244.0, 11.90, 242.4, 25.528, 1006.77, 0.5, 84.242, 242.8, , , , 32.4153, 27.4424, 1537.3426, 51.9777, 27.3902, 27.4424, 20.9, 4.1340, 1B
2009/03/11, 02:06:01, 7.167383, -89.232383, , , 243.0, 12.30, 242.4, 25.513, 1006.76, 0.5, 84.387, 242.9, , , , 32.4272, 27.4364, 1537.3355, 51.9755, 27.3922, 27.4364, 23.8, 4.4193, 1B